User: anonymous   Login
Location: Corcelles
(46.1547°N, 4.7234°E)
Time: 13:52:42
(UTC+00:00)
Language:

Cosmos 2369 - Orbit

View from above orbital plane
View from above orbital plane
View from above satellite
View from above satellite

Ground track
Ground track

The orbit data is extracted from the following two-line orbital elements,

1 26069U 00006A   20274.96020872 -.00000156  00000-0 -57584-4 0  9995
2 26069  70.9984   1.4452 0012825 222.2501 137.7634 14.13416493 65929
Epoch (UTC): 30 September 2020 23:02:42
Eccentricity: 0.0012825
inclination: 70.9984°
perigee height: 838 km
apogee height: 857 km
right ascension of ascending node: 1.4452°
argument of perigee: 222.2501°
revolutions per day: 14.13416493
mean anomaly at epoch: 137.7634°
orbit number at epoch: 6592

The dashed part of the orbit path shows where the satellite is in the earth's shadow,  

DLR